Weather reports worldwide

Advertisment
Moron de la Frontera, Spain (8397): temperature & dewpoint: 27.06.2020 18:00:00 - 03.07.2020 18:00:00 (CEST)Moron de la Frontera, Spain (8397): wind speed: 27.06.2020 18:00:00 - 03.07.2020 18:00:00 (CEST)Moron de la Frontera, Spain (8397): wind direction: 27.06.2020 18:00:00 - 03.07.2020 18:00:00 (CEST)Moron de la Frontera, Spain (8397): reduced air pressure: 27.06.2020 18:00:00 - 03.07.2020 18:00:00 (CEST)Moron de la Frontera, Spain (8397): visibility: 27.06.2020 18:00:00 - 03.07.2020 18:00:00 (CEST)
Date & Time tt [°C] td [°C] ff [km/h] ff [kn] dd ppp [hPa] vv [km]
03.07.2020 18:00:00 - - - - - - -
03.07.2020 17:00:00 33,4 9,4 8 4 SW 1016,2 25
03.07.2020 16:00:00 - - - - - - -
03.07.2020 15:00:00 - - - - - - -
03.07.2020 14:00:00 31,7 11,5 5 3 W 1017,5 25
03.07.2020 13:00:00 - - - - - - -
03.07.2020 12:00:00 - - - - - - -
03.07.2020 11:00:00 25,6 13,8 4 2 W 1018,2 25
03.07.2020 10:00:00 - - - - - - -
03.07.2020 09:00:00 - - - - - - -
03.07.2020 08:00:00 19,0 14,5 4 2 SW 1017,7 40
03.07.2020 07:00:00 - - - - - - -
03.07.2020 06:00:00 - - - - - - -
03.07.2020 05:00:00 19,8 13,7 8 4 SW 1017,2 40
03.07.2020 04:00:00 - - - - - - -
03.07.2020 03:00:00 - - - - - - -
03.07.2020 02:00:00 23,2 13,7 11 6 SW 1017,1 40
03.07.2020 01:00:00 - - - - - - -
03.07.2020 00:00:00 - - - - - - -
02.07.2020 23:00:00 25,3 14,7 11 6 SW 1015,8 45
02.07.2020 22:00:00 - - - - - - -
02.07.2020 21:00:00 - - - - - - -
02.07.2020 20:00:00 31,6 14,3 21 11 WSW 1014,2 40
02.07.2020 19:00:00 - - - - - - -
02.07.2020 18:00:00 - - - - - - -
02.07.2020 17:00:00 35,7 13,8 5 3 W 1014,6 35
02.07.2020 16:00:00 - - - - - - -
02.07.2020 15:00:00 - - - - - - -
02.07.2020 14:00:00 32,9 15,4 4 2 WNW 1016,3 25
02.07.2020 13:00:00 - - - - - - -
02.07.2020 12:00:00 - - - - - - -
02.07.2020 11:00:00 26,1 18,0 4 2 W 1016,6 20
02.07.2020 10:00:00 - - - - - - -
02.07.2020 09:00:00 - - - - - - -
02.07.2020 08:00:00 19,3 14,8 5 3 SSW 1015,9 25
02.07.2020 07:00:00 - - - - - - -
02.07.2020 06:00:00 - - - - - - -
02.07.2020 05:00:00 20,2 15,2 8 4 SW 1015,0 25
02.07.2020 04:00:00 - - - - - - -
02.07.2020 03:00:00 - - - - - - -
02.07.2020 02:00:00 21,5 16,5 11 6 SW 1014,8 25
02.07.2020 01:00:00 - - - - - - -
02.07.2020 00:00:00 - - - - - - -
01.07.2020 23:00:00 24,4 16,1 8 4 WSW 1014,2 25
01.07.2020 22:00:00 - - - - - - -
01.07.2020 21:00:00 - - - - - - -
01.07.2020 20:00:00 31,4 13,6 5 3 W 1013,0 30
01.07.2020 19:00:00 - - - - - - -
01.07.2020 18:00:00 - - - - - - -
01.07.2020 17:00:00 33,3 14,4 11 6 W 1013,3 25
01.07.2020 16:00:00 - - - - - - -
01.07.2020 15:00:00 - - - - - - -
01.07.2020 14:00:00 30,0 16,1 5 3 W 1014,5 20
01.07.2020 13:00:00 - - - - - - -
01.07.2020 12:00:00 - - - - - - -
01.07.2020 11:00:00 23,1 17,6 4 2 SSW 1015,5 15
01.07.2020 10:00:00 - - - - - - -
01.07.2020 09:00:00 - - - - - - -
01.07.2020 08:00:00 17,3 15,3 0 0 N 1015,2 12
01.07.2020 07:00:00 - - - - - - -
01.07.2020 06:00:00 - - - - - - -
01.07.2020 05:00:00 19,3 16,5 4 2 W 1013,8 12
01.07.2020 04:00:00 - - - - - - -
01.07.2020 03:00:00 - - - - - - -
01.07.2020 02:00:00 20,8 16,4 0 0 N 1014,2 15
01.07.2020 01:00:00 - - - - - - -
01.07.2020 00:00:00 - - - - - - -
30.06.2020 23:00:00 24,0 17,0 9 5 SW 1012,8 15
30.06.2020 22:00:00 - - - - - - -
30.06.2020 21:00:00 - - - - - - -
30.06.2020 20:00:00 30,7 17,7 16 9 W 1010,6 18
30.06.2020 19:00:00 - - - - - - -
30.06.2020 18:00:00 - - - - - - -
30.06.2020 17:00:00 35,5 19,4 5 3 W 1010,5 18
30.06.2020 16:00:00 - - - - - - -
30.06.2020 15:00:00 - - - - - - -
30.06.2020 14:00:00 34,1 16,0 5 3 W 1012,0 20
30.06.2020 13:00:00 - - - - - - -
30.06.2020 12:00:00 - - - - - - -
30.06.2020 11:00:00 29,8 15,1 4 2 NNW 1012,4 15
30.06.2020 10:00:00 - - - - - - -
30.06.2020 09:00:00 - - - - - - -
30.06.2020 08:00:00 19,5 13,7 4 2 SSE 1012,1 20
30.06.2020 07:00:00 - - - - - - -
30.06.2020 06:00:00 - - - - - - -
30.06.2020 05:00:00 20,5 13,0 0 0 N 1011,8 25
30.06.2020 04:00:00 - - - - - - -
30.06.2020 03:00:00 - - - - - - -
30.06.2020 02:00:00 23,8 13,9 9 5 SW 1012,8 25
30.06.2020 01:00:00 - - - - - - -
30.06.2020 00:00:00 - - - - - - -
29.06.2020 23:00:00 27,6 14,6 8 4 SW 1012,1 25
29.06.2020 22:00:00 - - - - - - -
29.06.2020 21:00:00 - - - - - - -
29.06.2020 20:00:00 35,5 17,7 5 3 W 1010,5 25
29.06.2020 19:00:00 - - - - - - -
29.06.2020 18:00:00 - - - - - - -
29.06.2020 17:00:00 36,5 18,1 5 3 NNW 1011,6 25
29.06.2020 16:00:00 - - - - - - -
29.06.2020 15:00:00 - - - - - - -
29.06.2020 14:00:00 34,9 17,6 4 2 NW 1013,9 25
29.06.2020 13:00:00 - - - - - - -
29.06.2020 12:00:00 - - - - - - -
29.06.2020 11:00:00 29,7 16,5 4 2 N 1015,0 25
29.06.2020 10:00:00 - - - - - - -
29.06.2020 09:00:00 - - - - - - -
29.06.2020 08:00:00 21,3 16,0 5 3 E 1014,9 25
29.06.2020 07:00:00 - - - - - - -
29.06.2020 06:00:00 - - - - - - -
29.06.2020 05:00:00 21,5 14,9 8 4 S 1014,7 25
29.06.2020 04:00:00 - - - - - - -
29.06.2020 03:00:00 - - - - - - -
29.06.2020 02:00:00 23,7 14,9 4 2 SSW 1015,4 25
29.06.2020 01:00:00 - - - - - - -
29.06.2020 00:00:00 - - - - - - -
28.06.2020 23:00:00 28,1 16,1 11 6 WSW 1014,7 25
28.06.2020 22:00:00 - - - - - - -
28.06.2020 21:00:00 - - - - - - -
28.06.2020 20:00:00 35,9 16,1 5 3 W 1012,9 25
28.06.2020 19:00:00 - - - - - - -
28.06.2020 18:00:00 - - - - - - -
28.06.2020 17:00:00 37,0 16,5 4 2 SSE 1013,8 25
28.06.2020 16:00:00 - - - - - - -
28.06.2020 15:00:00 - - - - - - -
28.06.2020 14:00:00 33,9 16,7 5 3 NNW 1015,5 25
28.06.2020 13:00:00 - - - - - - -
28.06.2020 12:00:00 - - - - - - -
28.06.2020 11:00:00 28,3 16,9 8 4 NNE 1016,6 25
28.06.2020 10:00:00 - - - - - - -
28.06.2020 09:00:00 - - - - - - -
28.06.2020 08:00:00 19,3 14,8 0 0 N 1016,5 30
28.06.2020 07:00:00 - - - - - - -
28.06.2020 06:00:00 - - - - - - -
28.06.2020 05:00:00 19,4 14,2 4 2 S 1016,2 30
28.06.2020 04:00:00 - - - - - - -
28.06.2020 03:00:00 - - - - - - -
28.06.2020 02:00:00 21,9 15,0 5 3 SW 1016,3 35
28.06.2020 01:00:00 - - - - - - -
28.06.2020 00:00:00 - - - - - - -
27.06.2020 23:00:00 23,1 15,2 9 5 SW 1016,4 40
27.06.2020 22:00:00 - - - - - - -
27.06.2020 21:00:00 - - - - - - -
27.06.2020 20:00:00 31,7 15,2 4 2 W 1014,6 40
27.06.2020 19:00:00 - - - - - - -
27.06.2020 18:00:00 - - - - - - -

tt = temperature
td = dewpoint
ff = wind speed
dd = wind direction
ppp = reduced air pressure
vv = visibility

Next stations